Time,TemperatureF,DewpointF,PressureIn,WindDirection,WindDirectionDegrees,WindSpeedMPH,WindSpeedGustMPH,Humidity,HourlyPrecipIn,Conditions,Clouds,dailyrainin,SoftwareType,DateUTC
2013-03-07 00:01:00,32.0,31.0,30.13,West,279,0.0,0.0,96,0.00,,,0.10,Wunderground v.1.15,2013-03-07 05:01:00,
2013-03-07 00:02:00,32.0,31.0,30.13,West,279,1.0,1.0,96,0.00,,,0.00,Wunderground v.1.15,2013-03-07 05:02:00,
2013-03-07 00:07:00,32.0,31.0,30.13,West,279,0.0,1.0,96,0.00,,,0.00,Wunderground v.1.15,2013-03-07 05:07:00,
2013-03-07 00:09:00,32.0,31.0,30.12,West,279,0.0,1.0,96,0.00,,,0.00,Wunderground v.1.15,2013-03-07 05:09:00,
2013-03-07 00:10:00,32.0,31.0,30.12,West,279,0.0,1.0,96,0.00,,,0.00,Wunderground v.1.15,2013-03-07 05:10:00,
2013-03-07 00:15:00,32.0,31.0,30.13,SW,218,0.0,5.0,96,0.00,,,0.00,Wunderground v.1.15,2013-03-07 05:15:00,
2013-03-07 00:21:00,31.9,30.9,30.13,West,267,1.0,1.0,96,0.00,,,0.00,Wunderground v.1.15,2013-03-07 05:21:00,
2013-03-07 00:27:00,31.9,30.9,30.13,West,267,0.0,2.0,96,0.00,,,0.00,Wunderground v.1.15,2013-03-07 05:27:00,
2013-03-07 00:33:00,31.9,31.1,30.13,West,269,0.0,0.0,97,0.00,,,0.00,Wunderground v.1.15,2013-03-07 05:33:00,
2013-03-07 00:39:00,31.9,31.1,30.13,West,269,0.0,0.0,97,0.00,,,0.00,Wunderground v.1.15,2013-03-07 05:39:00,
2013-03-07 00:45:00,31.9,31.1,30.13,West,269,0.0,0.0,97,0.00,,,0.00,Wunderground v.1.15,2013-03-07 05:45:00,
2013-03-07 00:51:00,31.9,31.1,30.14,West,269,0.0,0.0,97,0.00,,,0.00,Wunderground v.1.15,2013-03-07 05:51:00,
2013-03-07 00:56:00,31.9,31.1,30.14,West,269,0.0,0.0,97,0.00,,,0.00,Wunderground v.1.15,2013-03-07 05:56:00,
2013-03-07 01:02:00,31.8,31.0,30.14,West,267,0.0,3.0,97,0.00,,,0.00,Wunderground v.1.15,2013-03-07 06:02:00,
2013-03-07 01:08:00,31.9,31.1,30.14,West,265,0.0,3.0,97,0.00,,,0.00,Wunderground v.1.15,2013-03-07 06:08:00,
2013-03-07 01:14:00,31.8,31.0,30.14,West,265,0.0,3.0,97,0.00,,,0.00,Wunderground v.1.15,2013-03-07 06:14:00,
2013-03-07 01:20:00,31.8,31.0,30.14,WSW,243,1.0,1.0,97,0.00,,,0.00,Wunderground v.1.15,2013-03-07 06:20:00,
2013-03-07 01:26:00,31.8,31.0,30.14,WSW,242,1.0,4.0,97,0.00,,,0.00,Wunderground v.1.15,2013-03-07 06:26:00,
2013-03-07 01:31:00,31.8,31.0,30.14,WSW,242,0.0,3.0,97,0.00,,,0.00,Wunderground v.1.15,2013-03-07 06:31:00,
2013-03-07 01:37:00,31.8,31.0,30.14,WSW,242,0.0,3.0,97,0.00,,,0.00,Wunderground v.1.15,2013-03-07 06:37:00,
2013-03-07 01:43:00,31.8,31.0,30.14,West,277,0.0,4.0,97,0.00,,,0.00,Wunderground v.1.15,2013-03-07 06:43:00,
2013-03-07 01:49:00,31.7,30.9,30.14,West,277,0.0,4.0,97,0.00,,,0.00,Wunderground v.1.15,2013-03-07 06:49:00,
2013-03-07 01:55:00,31.7,30.9,30.15,West,274,0.0,3.0,97,0.00,,,0.00,Wunderground v.1.15,2013-03-07 06:55:00,
2013-03-07 02:01:00,31.7,30.9,30.15,West,274,0.0,3.0,97,0.00,,,0.00,Wunderground v.1.15,2013-03-07 07:01:00,
2013-03-07 02:07:00,31.7,30.9,30.14,WNW,298,0.0,3.0,97,0.00,,,0.00,Wunderground v.1.15,2013-03-07 07:07:00,
2013-03-07 02:13:00,31.7,30.9,30.14,WNW,290,1.0,3.0,97,0.00,,,0.00,Wunderground v.1.15,2013-03-07 07:13:00,
2013-03-07 02:19:00,31.6,30.8,30.14,WNW,290,0.0,3.0,97,0.00,,,0.00,Wunderground v.1.15,2013-03-07 07:19:00,
2013-03-07 02:25:00,31.6,30.8,30.14,West,281,0.0,3.0,97,0.00,,,0.00,Wunderground v.1.15,2013-03-07 07:25:00,
2013-03-07 02:30:00,31.6,30.8,30.14,West,266,0.0,3.0,97,0.00,,,0.00,Wunderground v.1.15,2013-03-07 07:30:00,
2013-03-07 02:36:00,31.6,30.8,30.14,West,266,0.0,3.0,97,0.00,,,0.00,Wunderground v.1.15,2013-03-07 07:36:00,
2013-03-07 02:42:00,31.5,30.7,30.14,West,265,0.0,3.0,97,0.00,,,0.00,Wunderground v.1.15,2013-03-07 07:42:00,
2013-03-07 02:48:00,31.5,30.7,30.13,West,265,0.0,3.0,97,0.00,,,0.00,Wunderground v.1.15,2013-03-07 07:48:00,
2013-03-07 02:54:00,31.5,30.7,30.13,West,265,0.0,3.0,97,0.00,,,0.00,Wunderground v.1.15,2013-03-07 07:54:00,
2013-03-07 03:00:00,31.5,30.7,30.14,West,265,0.0,3.0,97,0.00,,,0.00,Wunderground v.1.15,2013-03-07 08:00:00,
2013-03-07 03:06:00,31.5,30.7,30.14,West,265,0.0,3.0,97,0.00,,,0.00,Wunderground v.1.15,2013-03-07 08:06:00,
2013-03-07 03:12:00,31.5,30.7,30.14,West,265,0.0,3.0,97,0.00,,,0.00,Wunderground v.1.15,2013-03-07 08:12:00,
2013-03-07 03:18:00,31.5,30.7,30.14,West,265,0.0,3.0,97,0.00,,,0.00,Wunderground v.1.15,2013-03-07 08:18:00,
2013-03-07 03:24:00,31.4,30.9,30.14,West,265,0.0,3.0,98,0.00,,,0.00,Wunderground v.1.15,2013-03-07 08:24:00,
2013-03-07 03:30:00,31.4,30.6,30.14,West,265,0.0,3.0,97,0.00,,,0.00,Wunderground v.1.15,2013-03-07 08:30:00,
2013-03-07 03:35:00,31.4,30.6,30.14,West,265,0.0,3.0,97,0.00,,,0.00,Wunderground v.1.15,2013-03-07 08:35:00,
2013-03-07 03:41:00,31.4,30.6,30.15,West,265,0.0,3.0,97,0.00,,,0.00,Wunderground v.1.15,2013-03-07 08:41:00,
2013-03-07 03:46:00,31.4,30.9,30.15,WNW,286,1.0,3.0,98,0.00,,,0.00,Wunderground v.1.15,2013-03-07 08:46:00,
2013-03-07 03:52:00,31.3,30.8,30.15,West,274,1.0,6.0,98,0.00,,,0.00,Wunderground v.1.15,2013-03-07 08:52:00,
2013-03-07 03:58:00,31.4,30.9,30.15,WNW,300,1.0,6.0,98,0.00,,,0.00,Wunderground v.1.15,2013-03-07 08:58:00,
2013-03-07 04:04:00,31.3,30.8,30.15,NW,312,0.0,3.0,98,0.00,,,0.00,Wunderground v.1.15,2013-03-07 09:04:00,
2013-03-07 04:09:00,31.3,30.8,30.15,NW,307,0.0,4.0,98,0.00,,,0.00,Wunderground v.1.15,2013-03-07 09:09:00,
2013-03-07 04:15:00,31.3,30.8,30.16,NW,307,1.0,3.0,98,0.00,,,0.00,Wunderground v.1.15,2013-03-07 09:15:00,
2013-03-07 04:21:00,31.3,30.8,30.16,WNW,295,0.0,3.0,98,0.00,,,0.00,Wunderground v.1.15,2013-03-07 09:21:00,
2013-03-07 04:27:00,31.2,30.7,30.15,WNW,294,1.0,3.0,98,0.00,,,0.00,Wunderground v.1.15,2013-03-07 09:27:00,
2013-03-07 04:33:00,31.2,30.7,30.15,NW,313,1.0,3.0,98,0.00,,,0.00,Wunderground v.1.15,2013-03-07 09:33:00,
2013-03-07 04:38:00,31.2,30.7,30.15,NW,313,0.0,3.0,98,0.00,,,0.00,Wunderground v.1.15,2013-03-07 09:38:00,
2013-03-07 04:43:00,31.2,30.7,30.15,NW,313,0.0,3.0,98,0.00,,,0.00,Wunderground v.1.15,2013-03-07 09:43:00,
2013-03-07 04:49:00,31.1,30.6,30.15,NW,313,0.0,3.0,98,0.00,,,0.00,Wunderground v.1.15,2013-03-07 09:49:00,
2013-03-07 04:55:00,31.1,30.6,30.15,NW,313,0.0,3.0,98,0.00,,,0.00,Wunderground v.1.15,2013-03-07 09:55:00,
2013-03-07 05:01:00,31.1,30.6,30.15,WNW,300,1.0,3.0,98,0.00,,,0.00,Wunderground v.1.15,2013-03-07 10:01:00,
2013-03-07 05:07:00,31.0,30.5,30.15,WNW,295,1.0,3.0,98,0.00,,,0.00,Wunderground v.1.15,2013-03-07 10:07:00,
2013-03-07 05:12:00,31.0,30.5,30.15,WNW,295,0.0,3.0,98,0.00,,,0.00,Wunderground v.1.15,2013-03-07 10:12:00,
2013-03-07 05:17:00,31.0,30.5,30.15,WNW,295,0.0,3.0,98,0.00,,,0.00,Wunderground v.1.15,2013-03-07 10:17:00,
2013-03-07 05:23:00,31.0,30.5,30.16,WNW,295,0.0,4.0,98,0.00,,,0.00,Wunderground v.1.15,2013-03-07 10:23:00,
2013-03-07 05:29:00,30.9,30.4,30.16,WNW,295,1.0,4.0,98,0.00,,,0.00,Wunderground v.1.15,2013-03-07 10:29:00,
2013-03-07 05:34:00,30.9,30.4,30.16,WNW,296,1.0,3.0,98,0.00,,,0.00,Wunderground v.1.15,2013-03-07 10:34:00,
2013-03-07 05:39:00,30.9,30.4,30.16,WNW,295,1.0,3.0,98,0.00,,,0.00,Wunderground v.1.15,2013-03-07 10:39:00,
2013-03-07 05:45:00,30.9,30.4,30.17,WNW,290,1.0,4.0,98,0.00,,,0.00,Wunderground v.1.15,2013-03-07 10:45:00,
2013-03-07 05:51:00,30.9,30.4,30.17,West,271,1.0,3.0,98,0.00,,,0.00,Wunderground v.1.15,2013-03-07 10:51:00,
2013-03-07 05:56:00,30.8,30.3,30.17,WNW,300,1.0,4.0,98,0.00,,,0.00,Wunderground v.1.15,2013-03-07 10:56:00,
2013-03-07 06:01:00,30.8,30.3,30.17,WNW,298,1.0,3.0,98,0.00,,,0.00,Wunderground v.1.15,2013-03-07 11:01:00,
2013-03-07 06:07:00,30.7,30.2,30.17,WNW,289,1.0,4.0,98,0.00,,,0.00,Wunderground v.1.15,2013-03-07 11:07:00,
2013-03-07 06:13:00,30.7,30.0,30.17,WNW,292,1.0,3.0,97,0.00,,,0.00,Wunderground v.1.15,2013-03-07 11:13:00,
2013-03-07 06:19:00,30.6,29.9,30.17,WNW,301,1.0,3.0,97,0.00,,,0.00,Wunderground v.1.15,2013-03-07 11:19:00,
2013-03-07 06:25:00,30.6,29.9,30.17,NW,304,1.0,4.0,97,0.00,,,0.00,Wunderground v.1.15,2013-03-07 11:25:00,
2013-03-07 06:31:00,30.5,29.8,30.18,WNW,300,1.0,1.0,97,0.00,,,0.00,Wunderground v.1.15,2013-03-07 11:31:00,
2013-03-07 06:36:00,30.4,29.7,30.18,West,277,1.0,4.0,97,0.00,,,0.00,Wunderground v.1.15,2013-03-07 11:36:00,
2013-03-07 06:41:00,30.3,29.6,30.18,NW,305,1.0,3.0,97,0.00,,,0.00,Wunderground v.1.15,2013-03-07 11:41:00,
2013-03-07 06:46:00,30.2,29.2,30.18,NW,307,2.0,4.0,96,0.00,,,0.00,Wunderground v.1.15,2013-03-07 11:46:00,
2013-03-07 06:52:00,30.1,29.1,30.18,NW,321,2.0,5.0,96,0.00,,,0.00,Wunderground v.1.15,2013-03-07 11:52:00,
2013-03-07 06:57:00,30.0,29.0,30.19,NW,309,2.0,5.0,96,0.00,,,0.00,Wunderground v.1.15,2013-03-07 11:57:00,
2013-03-07 07:03:00,29.9,28.9,30.19,WNW,284,2.0,4.0,96,0.00,,,0.00,Wunderground v.1.15,2013-03-07 12:03:00,
2013-03-07 07:08:00,29.8,28.8,30.20,West,281,2.0,4.0,96,0.00,,,0.00,Wunderground v.1.15,2013-03-07 12:08:00,
2013-03-07 07:13:00,29.8,28.8,30.20,West,277,2.0,4.0,96,0.00,,,0.00,Wunderground v.1.15,2013-03-07 12:13:00,
2013-03-07 07:19:00,29.8,28.8,30.20,WNW,289,1.0,4.0,96,0.00,,,0.00,Wunderground v.1.15,2013-03-07 12:19:00,
2013-03-07 07:25:00,29.7,28.7,30.20,WNW,284,2.0,3.0,96,0.00,,,0.00,Wunderground v.1.15,2013-03-07 12:25:00,
2013-03-07 07:31:00,29.7,28.7,30.21,WNW,303,2.0,3.0,96,0.00,,,0.00,Wunderground v.1.15,2013-03-07 12:31:00,
2013-03-07 07:37:00,29.6,28.6,30.21,WNW,292,2.0,3.0,96,0.00,,,0.00,Wunderground v.1.15,2013-03-07 12:37:00,
2013-03-07 07:43:00,29.6,28.6,30.21,WNW,290,2.0,7.0,96,0.00,,,0.00,Wunderground v.1.15,2013-03-07 12:43:00,
2013-03-07 07:49:00,29.6,28.6,30.22,NW,304,3.0,7.0,96,0.00,,,0.00,Wunderground v.1.15,2013-03-07 12:49:00,
2013-03-07 07:54:00,29.6,28.6,30.22,NW,325,2.0,5.0,96,0.00,,,0.00,Wunderground v.1.15,2013-03-07 12:54:00,
2013-03-07 08:00:00,29.6,28.6,30.22,West,271,2.0,3.0,96,0.00,,,0.00,Wunderground v.1.15,2013-03-07 13:00:00,
2013-03-07 08:05:00,29.7,28.7,30.22,WNW,288,1.0,3.0,96,0.00,,,0.00,Wunderground v.1.15,2013-03-07 13:05:00,
2013-03-07 08:10:00,29.7,28.7,30.23,West,274,2.0,2.0,96,0.00,,,0.00,Wunderground v.1.15,2013-03-07 13:10:00,
2013-03-07 08:16:00,29.7,28.7,30.23,WNW,292,2.0,4.0,96,0.00,,,0.00,Wunderground v.1.15,2013-03-07 13:16:00,
2013-03-07 08:22:00,29.7,28.7,30.23,West,281,2.0,3.0,96,0.00,,,0.00,Wunderground v.1.15,2013-03-07 13:22:00,
2013-03-07 08:27:00,29.7,28.7,30.24,WNW,287,1.0,3.0,96,0.00,,,0.00,Wunderground v.1.15,2013-03-07 13:27:00,
2013-03-07 08:33:00,29.8,28.8,30.24,WNW,286,1.0,3.0,96,0.00,,,0.00,Wunderground v.1.15,2013-03-07 13:33:00,
2013-03-07 08:39:00,29.8,28.8,30.24,NW,317,1.0,5.0,96,0.00,,,0.00,Wunderground v.1.15,2013-03-07 13:39:00,
2013-03-07 08:45:00,29.8,28.8,30.24,WNW,282,2.0,3.0,96,0.00,,,0.00,Wunderground v.1.15,2013-03-07 13:45:00,
2013-03-07 08:51:00,29.8,28.8,30.24,WNW,283,2.0,3.0,96,0.00,,,0.00,Wunderground v.1.15,2013-03-07 13:51:00,
2013-03-07 08:56:00,29.8,28.8,30.24,WNW,289,2.0,3.0,96,0.00,,,0.00,Wunderground v.1.15,2013-03-07 13:56:00,
2013-03-07 09:02:00,29.8,28.8,30.24,WNW,298,2.0,3.0,96,0.00,,,0.00,Wunderground v.1.15,2013-03-07 14:02:00,
2013-03-07 09:08:00,29.9,28.9,30.24,NW,312,2.0,3.0,96,0.00,,,0.00,Wunderground v.1.15,2013-03-07 14:08:00,
2013-03-07 09:14:00,29.9,28.9,30.24,WNW,296,1.0,3.0,96,0.00,,,0.00,Wunderground v.1.15,2013-03-07 14:14:00,
2013-03-07 09:20:00,29.9,28.9,30.24,NW,317,2.0,2.0,96,0.00,,,0.00,Wunderground v.1.15,2013-03-07 14:20:00,
2013-03-07 09:26:00,30.0,29.0,30.24,WNW,285,2.0,4.0,96,0.00,,,0.00,Wunderground v.1.15,2013-03-07 14:26:00,
2013-03-07 09:32:00,30.1,29.1,30.24,West,281,2.0,4.0,96,0.00,,,0.00,Wunderground v.1.15,2013-03-07 14:32:00,
2013-03-07 09:39:00,30.1,28.8,30.24,NW,304,3.0,8.0,95,0.00,,,0.00,Wunderground v.1.15,2013-03-07 14:39:00,
2013-03-07 09:45:00,30.1,28.8,30.24,NW,312,3.0,4.0,95,0.00,,,0.00,Wunderground v.1.15,2013-03-07 14:45:00,
2013-03-07 09:51:00,30.3,29.0,30.24,WNW,291,2.0,3.0,95,0.00,,,0.00,Wunderground v.1.15,2013-03-07 14:51:00,
2013-03-07 09:57:00,30.3,28.8,30.24,WNW,292,2.0,5.0,94,0.00,,,0.00,Wunderground v.1.15,2013-03-07 14:57:00,
2013-03-07 10:03:00,30.3,28.8,30.25,NW,313,2.0,6.0,94,0.00,,,0.00,Wunderground v.1.15,2013-03-07 15:03:00,
2013-03-07 10:09:00,30.4,28.9,30.24,WNW,283,2.0,6.0,94,0.00,,,0.00,Wunderground v.1.15,2013-03-07 15:09:00,
2013-03-07 10:15:00,30.5,29.0,30.25,NW,323,2.0,3.0,94,0.00,,,0.00,Wunderground v.1.15,2013-03-07 15:15:00,
2013-03-07 10:21:00,30.4,28.6,30.25,West,276,3.0,4.0,93,0.00,,,0.00,Wunderground v.1.15,2013-03-07 15:21:00,
2013-03-07 10:28:00,30.4,28.6,30.25,WNW,294,2.0,4.0,93,0.00,,,0.00,Wunderground v.1.15,2013-03-07 15:28:00,
2013-03-07 10:33:00,30.5,29.0,30.25,WNW,292,1.0,3.0,94,0.00,,,0.00,Wunderground v.1.15,2013-03-07 15:33:00,
2013-03-07 10:39:00,30.6,29.1,30.25,NW,311,1.0,3.0,94,0.00,,,0.00,Wunderground v.1.15,2013-03-07 15:39:00,
2013-03-07 10:44:00,30.8,29.0,30.25,West,279,1.0,3.0,93,0.00,,,0.00,Wunderground v.1.15,2013-03-07 15:44:00,
2013-03-07 10:50:00,31.0,29.2,30.25,WNW,302,1.0,4.0,93,0.00,,,0.00,Wunderground v.1.15,2013-03-07 15:50:00,
2013-03-07 10:55:00,31.2,29.4,30.25,WNW,288,2.0,6.0,93,0.00,,,0.00,Wunderground v.1.15,2013-03-07 15:55:00,
2013-03-07 11:01:00,31.2,28.9,30.25,WNW,286,3.0,4.0,91,0.00,,,0.00,Wunderground v.1.15,2013-03-07 16:01:00,
2013-03-07 11:07:00,31.4,29.3,30.25,WNW,299,3.0,6.0,92,0.00,,,0.01,Wunderground v.1.15,2013-03-07 16:07:00,
2013-03-07 11:13:00,31.6,29.3,30.25,NW,308,3.0,4.0,91,0.00,,,0.01,Wunderground v.1.15,2013-03-07 16:13:00,
2013-03-07 11:19:00,31.9,29.6,30.25,West,262,2.0,4.0,91,0.00,,,0.01,Wunderground v.1.15,2013-03-07 16:19:00,
2013-03-07 11:24:00,32.3,29.7,30.25,SW,235,2.0,3.0,90,0.00,,,0.01,Wunderground v.1.15,2013-03-07 16:24:00,
2013-03-07 11:30:00,32.6,29.7,30.25,WNW,284,2.0,3.0,89,0.00,,,0.01,Wunderground v.1.15,2013-03-07 16:30:00,
2013-03-07 11:36:00,32.9,30.0,30.25,WNW,294,2.0,3.0,89,0.00,,,0.01,Wunderground v.1.15,2013-03-07 16:36:00,
2013-03-07 11:42:00,33.3,30.4,30.25,NW,309,2.0,3.0,89,0.00,,,0.01,Wunderground v.1.15,2013-03-07 16:42:00,
2013-03-07 11:48:00,33.4,30.2,30.25,WNW,302,2.0,6.0,88,0.00,,,0.01,Wunderground v.1.15,2013-03-07 16:48:00,
2013-03-07 11:54:00,33.6,30.4,30.25,WNW,283,2.0,3.0,88,0.00,,,0.01,Wunderground v.1.15,2013-03-07 16:54:00,
2013-03-07 11:59:00,33.7,30.2,30.25,West,267,2.0,8.0,87,0.00,,,0.01,Wunderground v.1.15,2013-03-07 16:59:00,
2013-03-07 12:05:00,33.8,29.8,30.25,NW,315,4.0,6.0,85,0.00,,,0.01,Wunderground v.1.15,2013-03-07 17:05:00,
2013-03-07 12:10:00,33.8,30.1,30.25,NNW,329,4.0,4.0,86,0.00,,,0.01,Wunderground v.1.15,2013-03-07 17:10:00,
2013-03-07 12:16:00,34.1,30.1,30.25,West,261,3.0,7.0,85,0.00,,,0.01,Wunderground v.1.15,2013-03-07 17:16:00,
2013-03-07 12:22:00,34.9,30.6,30.24,NW,316,3.0,6.0,84,0.00,,,0.01,Wunderground v.1.15,2013-03-07 17:22:00,
2013-03-07 12:28:00,35.5,30.5,30.24,NW,306,3.0,6.0,82,0.00,,,0.01,Wunderground v.1.15,2013-03-07 17:28:00,
2013-03-07 12:34:00,35.6,30.0,30.24,NW,322,4.0,8.0,80,0.00,,,0.01,Wunderground v.1.15,2013-03-07 17:34:00,
2013-03-07 12:40:00,35.3,29.4,30.24,NNW,327,5.0,5.0,79,0.00,,,0.02,Wunderground v.1.15,2013-03-07 17:40:00,
2013-03-07 12:45:00,35.2,29.3,30.24,West,274,4.0,6.0,79,0.00,,,0.02,Wunderground v.1.15,2013-03-07 17:45:00,
2013-03-07 12:51:00,34.7,28.5,30.24,WNW,300,5.0,8.0,78,0.00,,,0.02,Wunderground v.1.15,2013-03-07 17:51:00,
2013-03-07 12:57:00,34.3,29.1,30.24,North,349,4.0,8.0,81,0.00,,,0.02,Wunderground v.1.15,2013-03-07 17:57:00,
2013-03-07 13:02:00,34.2,29.0,30.24,NW,311,4.0,5.0,81,0.00,,,0.02,Wunderground v.1.15,2013-03-07 18:02:00,
2013-03-07 13:08:00,34.1,28.9,30.24,WNW,301,4.0,7.0,81,0.00,,,0.02,Wunderground v.1.15,2013-03-07 18:08:00,
2013-03-07 13:14:00,34.0,28.8,30.24,WNW,302,4.0,7.0,81,0.00,,,0.02,Wunderground v.1.15,2013-03-07 18:14:00,
2013-03-07 13:20:00,34.2,28.7,30.23,NW,311,4.0,4.0,80,0.00,,,0.02,Wunderground v.1.15,2013-03-07 18:20:00,
2013-03-07 13:26:00,34.4,28.6,30.23,NNW,340,4.0,8.0,79,0.00,,,0.02,Wunderground v.1.15,2013-03-07 18:26:00,
2013-03-07 13:32:00,34.5,29.0,30.23,WNW,302,5.0,6.0,80,0.00,,,0.02,Wunderground v.1.15,2013-03-07 18:32:00,
2013-03-07 13:38:00,34.5,29.0,30.23,NNW,340,5.0,7.0,80,0.00,,,0.02,Wunderground v.1.15,2013-03-07 18:38:00,
2013-03-07 13:43:00,34.3,29.1,30.24,NW,319,5.0,5.0,81,0.00,,,0.02,Wunderground v.1.15,2013-03-07 18:43:00,
2013-03-07 13:49:00,33.8,29.2,30.24,NNW,331,5.0,8.0,83,0.00,,,0.02,Wunderground v.1.15,2013-03-07 18:49:00,
2013-03-07 13:54:00,33.6,29.6,30.23,West,271,4.0,4.0,85,0.00,,,0.02,Wunderground v.1.15,2013-03-07 18:54:00,
2013-03-07 14:00:00,33.9,29.6,30.23,WNW,291,4.0,7.0,84,0.00,,,0.03,Wunderground v.1.15,2013-03-07 19:00:00,
2013-03-07 14:06:00,34.2,29.9,30.23,WNW,292,4.0,9.0,84,0.00,,,0.03,Wunderground v.1.15,2013-03-07 19:06:00,
2013-03-07 14:12:00,34.3,30.0,30.23,North,355,4.0,4.0,84,0.00,,,0.03,Wunderground v.1.15,2013-03-07 19:12:00,
2013-03-07 14:17:00,34.4,29.8,30.23,NW,310,4.0,4.0,83,0.00,,,0.03,Wunderground v.1.15,2013-03-07 19:17:00,
2013-03-07 14:23:00,34.4,29.8,30.23,NW,313,3.0,5.0,83,0.00,,,0.03,Wunderground v.1.15,2013-03-07 19:23:00,
2013-03-07 14:28:00,34.4,29.8,30.23,WNW,294,3.0,5.0,83,0.00,,,0.03,Wunderground v.1.15,2013-03-07 19:28:00,
2013-03-07 14:34:00,34.6,30.3,30.23,WNW,300,3.0,5.0,84,0.00,,,0.04,Wunderground v.1.15,2013-03-07 19:34:00,
2013-03-07 14:40:00,34.5,29.9,30.23,NW,306,3.0,5.0,83,0.00,,,0.04,Wunderground v.1.15,2013-03-07 19:40:00,
2013-03-07 14:45:00,34.5,30.2,30.23,WNW,286,4.0,5.0,84,0.00,,,0.04,Wunderground v.1.15,2013-03-07 19:45:00,
2013-03-07 14:52:00,35.0,30.1,30.23,West,261,3.0,6.0,82,0.00,,,0.04,Wunderground v.1.15,2013-03-07 19:52:00,
2013-03-07 14:57:00,34.9,30.0,30.23,NW,325,3.0,6.0,82,0.00,,,0.04,Wunderground v.1.15,2013-03-07 19:57:00,
2013-03-07 15:02:00,35.0,30.4,30.23,NW,318,4.0,6.0,83,0.00,,,0.04,Wunderground v.1.15,2013-03-07 20:02:00,
2013-03-07 15:08:00,35.2,30.6,30.23,West,275,4.0,6.0,83,0.00,,,0.04,Wunderground v.1.15,2013-03-07 20:08:00,
2013-03-07 15:13:00,35.1,30.2,30.23,NNW,337,3.0,7.0,82,0.00,,,0.04,Wunderground v.1.15,2013-03-07 20:13:00,
2013-03-07 15:19:00,35.0,29.8,30.23,NW,316,3.0,7.0,81,0.00,,,0.04,Wunderground v.1.15,2013-03-07 20:19:00,
2013-03-07 15:24:00,34.8,29.6,30.23,West,281,3.0,7.0,81,0.00,,,0.04,Wunderground v.1.15,2013-03-07 20:24:00,
2013-03-07 15:30:00,34.6,29.7,30.23,NW,319,4.0,4.0,82,0.00,,,0.05,Wunderground v.1.15,2013-03-07 20:30:00,
2013-03-07 15:36:00,34.4,30.1,30.24,NNW,329,3.0,5.0,84,0.00,,,0.05,Wunderground v.1.15,2013-03-07 20:36:00,
2013-03-07 15:42:00,34.4,29.8,30.24,NNW,343,3.0,6.0,83,0.00,,,0.05,Wunderground v.1.15,2013-03-07 20:42:00,
2013-03-07 15:48:00,34.4,29.8,30.24,North,355,3.0,6.0,83,0.00,,,0.05,Wunderground v.1.15,2013-03-07 20:48:00,
2013-03-07 15:54:00,34.3,30.3,30.24,NNW,328,3.0,4.0,85,0.00,,,0.05,Wunderground v.1.15,2013-03-07 20:54:00,
2013-03-07 16:00:00,34.3,30.0,30.24,WNW,286,2.0,3.0,84,0.00,,,0.05,Wunderground v.1.15,2013-03-07 21:00:00,
2013-03-07 16:06:00,34.3,30.0,30.24,NW,323,2.0,4.0,84,0.00,,,0.05,Wunderground v.1.15,2013-03-07 21:06:00,
2013-03-07 16:12:00,34.2,29.6,30.24,WSW,246,3.0,7.0,83,0.00,,,0.05,Wunderground v.1.15,2013-03-07 21:12:00,
2013-03-07 16:18:00,34.1,29.8,30.24,WNW,288,3.0,7.0,84,0.00,,,0.05,Wunderground v.1.15,2013-03-07 21:18:00,
2013-03-07 16:23:00,33.9,29.6,30.24,WNW,295,3.0,8.0,84,0.00,,,0.05,Wunderground v.1.15,2013-03-07 21:23:00,
2013-03-07 16:29:00,33.8,29.8,30.24,WNW,288,4.0,8.0,85,0.00,,,0.05,Wunderground v.1.15,2013-03-07 21:29:00,
2013-03-07 16:35:00,33.6,29.9,30.24,NW,319,3.0,7.0,86,0.00,,,0.05,Wunderground v.1.15,2013-03-07 21:35:00,
2013-03-07 16:41:00,33.4,29.7,30.24,NW,313,4.0,4.0,86,0.00,,,0.05,Wunderground v.1.15,2013-03-07 21:41:00,
2013-03-07 16:46:00,33.3,30.1,30.24,WNW,286,4.0,7.0,88,0.00,,,0.05,Wunderground v.1.15,2013-03-07 21:46:00,
2013-03-07 16:52:00,33.2,30.0,30.24,NW,306,3.0,4.0,88,0.00,,,0.05,Wunderground v.1.15,2013-03-07 21:52:00,
2013-03-07 16:58:00,33.2,30.0,30.25,NW,316,3.0,4.0,88,0.00,,,0.05,Wunderground v.1.15,2013-03-07 21:58:00,
2013-03-07 17:03:00,33.1,30.2,30.25,NW,306,2.0,5.0,89,0.00,,,0.05,Wunderground v.1.15,2013-03-07 22:03:00,
2013-03-07 17:09:00,33.1,30.2,30.25,WNW,295,2.0,5.0,89,0.00,,,0.05,Wunderground v.1.15,2013-03-07 22:09:00,
2013-03-07 17:15:00,33.0,30.4,30.26,NW,315,2.0,4.0,90,0.00,,,0.05,Wunderground v.1.15,2013-03-07 22:15:00,
2013-03-07 17:21:00,32.9,30.3,30.26,NW,321,3.0,3.0,90,0.00,,,0.05,Wunderground v.1.15,2013-03-07 22:21:00,
2013-03-07 17:26:00,32.8,30.5,30.26,NW,309,2.0,3.0,91,0.00,,,0.05,Wunderground v.1.15,2013-03-07 22:26:00,
2013-03-07 17:32:00,32.8,30.5,30.26,WNW,296,1.0,3.0,91,0.00,,,0.05,Wunderground v.1.15,2013-03-07 22:32:00,
2013-03-07 17:38:00,32.7,30.6,30.26,NW,314,1.0,3.0,92,0.00,,,0.05,Wunderground v.1.15,2013-03-07 22:38:00,
2013-03-07 17:44:00,32.6,30.5,30.26,WNW,286,2.0,3.0,92,0.00,,,0.05,Wunderground v.1.15,2013-03-07 22:44:00,
2013-03-07 17:50:00,32.5,30.4,30.26,WNW,284,2.0,3.0,92,0.00,,,0.05,Wunderground v.1.15,2013-03-07 22:50:00,
2013-03-07 17:56:00,32.3,30.2,30.26,WNW,288,2.0,3.0,92,0.00,,,0.05,Wunderground v.1.15,2013-03-07 22:56:00,
2013-03-07 18:02:00,32.3,30.5,30.27,WNW,293,1.0,3.0,93,0.00,,,0.05,Wunderground v.1.15,2013-03-07 23:02:00,
2013-03-07 18:08:00,32.2,30.4,30.26,WNW,294,0.0,3.0,93,0.00,,,0.05,Wunderground v.1.15,2013-03-07 23:08:00,
2013-03-07 18:14:00,32.1,30.3,30.26,WNW,294,0.0,3.0,93,0.00,,,0.05,Wunderground v.1.15,2013-03-07 23:14:00,
2013-03-07 18:20:00,32.0,30.5,30.26,WNW,289,0.0,3.0,94,0.00,,,0.05,Wunderground v.1.15,2013-03-07 23:20:00,
2013-03-07 18:26:00,31.9,30.4,30.27,West,261,1.0,3.0,94,0.00,,,0.05,Wunderground v.1.15,2013-03-07 23:26:00,
2013-03-07 18:31:00,31.9,30.4,30.27,West,261,1.0,3.0,94,0.00,,,0.05,Wunderground v.1.15,2013-03-07 23:31:00,
2013-03-07 18:37:00,31.9,30.4,30.27,West,264,0.0,3.0,94,0.00,,,0.05,Wunderground v.1.15,2013-03-07 23:37:00,
2013-03-07 18:43:00,31.9,30.4,30.27,WNW,287,1.0,3.0,94,0.00,,,0.05,Wunderground v.1.15,2013-03-07 23:43:00,
2013-03-07 18:49:00,31.9,30.4,30.28,WNW,287,1.0,3.0,94,0.00,,,0.05,Wunderground v.1.15,2013-03-07 23:49:00,
2013-03-07 18:55:00,31.8,30.3,30.28,WNW,287,0.0,3.0,94,0.00,,,0.05,Wunderground v.1.15,2013-03-07 23:55:00,
2013-03-07 19:01:00,31.8,30.3,30.28,WNW,287,0.0,3.0,94,0.00,,,0.05,Wunderground v.1.15,2013-03-08 00:01:00,
2013-03-07 19:07:00,31.8,30.3,30.28,WNW,287,0.0,3.0,94,0.00,,,0.05,Wunderground v.1.15,2013-03-08 00:07:00,
2013-03-07 19:13:00,31.8,30.5,30.28,WNW,287,0.0,3.0,95,0.00,,,0.05,Wunderground v.1.15,2013-03-08 00:13:00,
2013-03-07 19:19:00,31.8,30.5,30.28,WNW,287,0.0,3.0,95,0.00,,,0.05,Wunderground v.1.15,2013-03-08 00:19:00,
2013-03-07 19:25:00,31.7,30.4,30.28,WNW,300,0.0,5.0,95,0.00,,,0.05,Wunderground v.1.15,2013-03-08 00:25:00,
2013-03-07 19:30:00,31.7,30.4,30.28,WNW,298,1.0,1.0,95,0.00,,,0.05,Wunderground v.1.15,2013-03-08 00:30:00,
2013-03-07 19:36:00,31.7,30.4,30.28,West,281,1.0,3.0,95,0.00,,,0.05,Wunderground v.1.15,2013-03-08 00:36:00,
2013-03-07 19:42:00,31.7,30.4,30.28,West,281,0.0,3.0,95,0.00,,,0.05,Wunderground v.1.15,2013-03-08 00:42:00,
2013-03-07 19:48:00,31.6,30.3,30.28,WNW,294,0.0,4.0,95,0.00,,,0.05,Wunderground v.1.15,2013-03-08 00:48:00,
2013-03-07 19:55:00,31.6,30.3,30.28,WNW,294,1.0,3.0,95,0.00,,,0.05,Wunderground v.1.15,2013-03-08 00:55:00,
2013-03-07 20:00:00,31.5,30.2,30.27,WNW,294,0.0,3.0,95,0.00,,,0.05,Wunderground v.1.15,2013-03-08 01:00:00,
2013-03-07 20:06:00,31.5,30.2,30.27,WNW,294,0.0,3.0,95,0.00,,,0.05,Wunderground v.1.15,2013-03-08 01:06:00,
2013-03-07 20:12:00,31.5,30.5,30.28,WNW,294,0.0,3.0,96,0.00,,,0.05,Wunderground v.1.15,2013-03-08 01:12:00,
2013-03-07 20:18:00,31.5,30.5,30.28,WNW,294,0.0,3.0,96,0.00,,,0.05,Wunderground v.1.15,2013-03-08 01:18:00,
2013-03-07 20:24:00,31.5,30.5,30.28,WNW,293,0.0,3.0,96,0.00,,,0.05,Wunderground v.1.15,2013-03-08 01:24:00,
2013-03-07 20:29:00,31.5,30.5,30.28,WNW,294,0.0,3.0,96,0.00,,,0.05,Wunderground v.1.15,2013-03-08 01:29:00,
2013-03-07 20:35:00,31.5,30.5,30.29,WNW,294,0.0,3.0,96,0.00,,,0.05,Wunderground v.1.15,2013-03-08 01:35:00,
2013-03-07 20:41:00,31.5,30.5,30.29,WNW,293,0.0,3.0,96,0.00,,,0.05,Wunderground v.1.15,2013-03-08 01:41:00,
2013-03-07 20:47:00,31.5,30.5,30.29,WNW,294,0.0,3.0,96,0.00,,,0.05,Wunderground v.1.15,2013-03-08 01:47:00,
2013-03-07 20:53:00,31.5,30.5,30.29,WNW,303,0.0,3.0,96,0.00,,,0.05,Wunderground v.1.15,2013-03-08 01:53:00,
2013-03-07 20:59:00,31.5,30.5,30.29,NNW,333,2.0,5.0,96,0.00,,,0.05,Wunderground v.1.15,2013-03-08 01:59:00,
2013-03-07 21:06:00,31.5,30.5,30.29,West,267,2.0,4.0,96,0.00,,,0.05,Wunderground v.1.15,2013-03-08 02:06:00,
2013-03-07 21:12:00,31.4,30.4,30.29,North,11,2.0,4.0,96,0.00,,,0.05,Wunderground v.1.15,2013-03-08 02:12:00,
2013-03-07 21:18:00,31.3,30.3,30.29,NW,323,3.0,5.0,96,0.00,,,0.05,Wunderground v.1.15,2013-03-08 02:18:00,
2013-03-07 21:24:00,31.2,30.2,30.29,NNW,347,2.0,5.0,96,0.00,,,0.05,Wunderground v.1.15,2013-03-08 02:24:00,
2013-03-07 21:30:00,31.1,30.1,30.29,NNW,328,2.0,4.0,96,0.00,,,0.05,Wunderground v.1.15,2013-03-08 02:30:00,
2013-03-07 21:36:00,31.0,30.0,30.29,NNW,328,2.0,4.0,96,0.00,,,0.05,Wunderground v.1.15,2013-03-08 02:36:00,
2013-03-07 21:42:00,30.9,29.9,30.29,NW,324,2.0,3.0,96,0.00,,,0.05,Wunderground v.1.15,2013-03-08 02:42:00,
2013-03-07 21:47:00,30.8,29.8,30.29,NNW,341,2.0,4.0,96,0.00,,,0.05,Wunderground v.1.15,2013-03-08 02:47:00,
2013-03-07 21:53:00,30.8,29.8,30.30,NW,314,2.0,3.0,96,0.00,,,0.05,Wunderground v.1.15,2013-03-08 02:53:00,
2013-03-07 21:59:00,30.7,29.7,30.29,NNW,329,2.0,5.0,96,0.00,,,0.05,Wunderground v.1.15,2013-03-08 02:59:00,
2013-03-07 22:06:00,30.6,29.9,30.29,NW,319,2.0,3.0,97,0.00,,,0.05,Wunderground v.1.15,2013-03-08 03:06:00,
2013-03-07 22:12:00,30.6,29.9,30.29,NW,311,2.0,4.0,97,0.00,,,0.05,Wunderground v.1.15,2013-03-08 03:12:00,
2013-03-07 22:19:00,30.5,29.8,30.29,WNW,303,2.0,4.0,97,0.00,,,0.05,Wunderground v.1.15,2013-03-08 03:19:00,
2013-03-07 22:24:00,30.5,29.8,30.29,North,351,2.0,3.0,97,0.00,,,0.05,Wunderground v.1.15,2013-03-08 03:24:00,
2013-03-07 22:30:00,30.4,29.7,30.29,NW,304,1.0,1.0,97,0.00,,,0.05,Wunderground v.1.15,2013-03-08 03:30:00,
2013-03-07 22:36:00,30.5,29.8,30.29,NNW,343,1.0,3.0,97,0.00,,,0.05,Wunderground v.1.15,2013-03-08 03:36:00,
2013-03-07 22:42:00,30.4,29.7,30.29,NW,324,1.0,3.0,97,0.00,,,0.05,Wunderground v.1.15,2013-03-08 03:42:00,
2013-03-07 22:48:00,30.4,29.7,30.29,NNW,334,1.0,4.0,97,0.00,,,0.05,Wunderground v.1.15,2013-03-08 03:48:00,
2013-03-07 22:53:00,30.3,29.6,30.29,WNW,300,1.0,3.0,97,0.00,,,0.05,Wunderground v.1.15,2013-03-08 03:53:00,
2013-03-07 22:59:00,30.3,29.8,30.29,NW,306,1.0,3.0,98,0.00,,,0.05,Wunderground v.1.15,2013-03-08 03:59:00,
2013-03-07 23:04:00,30.2,29.7,30.29,NNW,348,1.0,4.0,98,0.00,,,0.05,Wunderground v.1.15,2013-03-08 04:04:00,
2013-03-07 23:10:00,30.2,29.5,30.29,NNW,341,2.0,3.0,97,0.00,,,0.05,Wunderground v.1.15,2013-03-08 04:10:00,
2013-03-07 23:16:00,30.1,29.4,30.29,WNW,293,2.0,3.0,97,0.00,,,0.05,Wunderground v.1.15,2013-03-08 04:16:00,
2013-03-07 23:22:00,30.0,29.5,30.29,NW,323,2.0,3.0,98,0.00,,,0.05,Wunderground v.1.15,2013-03-08 04:22:00,
2013-03-07 23:28:00,30.0,29.5,30.29,NNE,19,1.0,3.0,98,0.00,,,0.05,Wunderground v.1.15,2013-03-08 04:28:00,
2013-03-07 23:34:00,29.9,29.4,30.29,WNW,294,0.0,3.0,98,0.00,,,0.05,Wunderground v.1.15,2013-03-08 04:34:00,
2013-03-07 23:39:00,29.9,29.4,30.29,NNW,336,1.0,3.0,98,0.00,,,0.05,Wunderground v.1.15,2013-03-08 04:39:00,
2013-03-07 23:45:00,29.9,29.4,30.29,NW,321,1.0,3.0,98,0.00,,,0.05,Wunderground v.1.15,2013-03-08 04:45:00,
2013-03-07 23:51:00,29.8,29.3,30.29,NW,313,2.0,3.0,98,0.00,,,0.05,Wunderground v.1.15,2013-03-08 04:51:00,
2013-03-07 23:57:00,29.8,29.3,30.29,WNW,291,2.0,3.0,98,0.00,,,0.05,Wunderground v.1.15,2013-03-08 04:57:00,